When you browse on this site, cookies collect data to enhance your experience and personalize the content and advertising you see.
Visit our Privacy Policy to learn more. By continuing to use the site, you agree to this use of cookies and data.
  • In Hungary
  • List of Countries
  • For 7 days
  • Water Temperature
  • Satellite Maps
  • Weather Map
  • News
  • Weather Widgets
  • user-avatar
    Login

    Hourly Weather Kierzno

    Today, 19 May, Sunday

    Time Temperature Precipitation Wind Pressure Humidity
    00:00 +14°C° 0 mm 2 mps 749 mmHg 86%
    01:00 +14°C° 0 mm 2 mps 749 mmHg 88%
    02:00 +14°C° 0.2 mm 2 mps 749 mmHg 89%
    03:00 +14°C° 0.2 mm 2 mps 748 mmHg 90%
    04:00 +14°C° 0.2 mm 1 mps 748 mmHg 91%
    05:00 +15°C° 0.3 mm 2 mps 748 mmHg 89%
    06:00 +16°C° 0.3 mm 2 mps 748 mmHg 87%
    07:00 +17°C° 0 mm 2 mps 748 mmHg 82%
    08:00 +19°C° 0.3 mm 2 mps 748 mmHg 76%
    09:00 +21°C° 0.3 mm 2 mps 748 mmHg 70%
    10:00 +23°C° 0.3 mm 2 mps 748 mmHg 64%
    11:00 +24°C° 0.6 mm 3 mps 747 mmHg 61%
    12:00 +25°C° 0.6 mm 3 mps 747 mmHg 58%
    13:00 +25°C° 0 mm 3 mps 747 mmHg 55%
    14:00 +25°C° 0.4 mm 4 mps 747 mmHg 57%
    15:00 +25°C° 0.4 mm 4 mps 747 mmHg 59%
    16:00 +25°C° 0.4 mm 4 mps 746 mmHg 60%
    17:00 +24°C° 0.1 mm 3 mps 746 mmHg 67%
    18:00 +21°C° 0.1 mm 3 mps 746 mmHg 73%
    19:00 +20°C° 0.1 mm 2 mps 746 mmHg 80%
    20:00 +19°C° 0 mm 2 mps 746 mmHg 84%
    21:00 +18°C° 0 mm 2 mps 746 mmHg 87%
    22:00 +16°C° 0 mm 2 mps 746 mmHg 90%
    23:00 +16°C° 0 mm 2 mps 746 mmHg 91%

    Tomorrow, 20 May, Monday

    Time Temperature Precipitation Wind Pressure Humidity
    00:00 +15°C° 0 mm 2 mps 746 mmHg 92%
    01:00 +15°C° 0 mm 1 mps 746 mmHg 93%
    02:00 +15°C° 0 mm 1 mps 746 mmHg 93%
    03:00 +14°C° 0 mm 1 mps 746 mmHg 94%
    04:00 +14°C° 0 mm 1 mps 746 mmHg 94%
    05:00 +15°C° 0 mm 1 mps 745 mmHg 90%
    06:00 +16°C° 0 mm 1 mps 745 mmHg 87%
    07:00 +18°C° 0 mm 1 mps 745 mmHg 83%
    08:00 +19°C° 0.1 mm 1 mps 745 mmHg 82%
    09:00 +19°C° 0.1 mm 1 mps 745 mmHg 81%
    10:00 +20°C° 0.1 mm 1 mps 745 mmHg 79%
    11:00 +21°C° 0.5 mm 1 mps 745 mmHg 77%
    12:00 +21°C° 0.5 mm 2 mps 745 mmHg 75%
    13:00 +22°C° 0.5 mm 3 mps 745 mmHg 73%
    14:00 +22°C° 0.3 mm 3 mps 744 mmHg 70%
    15:00 +24°C° 0.3 mm 3 mps 744 mmHg 67%
    16:00 +24°C° 0.3 mm 2 mps 744 mmHg 64%
    17:00 +22°C° 0 mm 3 mps 744 mmHg 68%
    18:00 +21°C° 0 mm 3 mps 744 mmHg 72%
    19:00 +20°C° 0 mm 3 mps 744 mmHg 76%
    20:00 +18°C° 0 mm 2 mps 744 mmHg 81%
    21:00 +17°C° 0 mm 2 mps 745 mmHg 85%
    22:00 +16°C° 0 mm 2 mps 745 mmHg 89%
    23:00 +15°C° 0 mm 2 mps 745 mmHg 90%

    Day after tomorrow, 21 May, Tuesday

    Time Temperature Precipitation Wind Pressure Humidity
    00:00 +15°C° 0 mm 2 mps 745 mmHg 91%
    01:00 +14°C° 0 mm 1 mps 746 mmHg 92%
    02:00 +14°C° 0 mm 1 mps 746 mmHg 92%
    03:00 +13°C° 0 mm 1 mps 746 mmHg 93%
    04:00 +13°C° 0 mm 1 mps 746 mmHg 93%
    05:00 +14°C° 0 mm 1 mps 746 mmHg 87%
    06:00 +16°C° 0 mm 1 mps 746 mmHg 80%
    07:00 +19°C° 0 mm 1 mps 746 mmHg 74%
    08:00 +20°C° 0 mm 1 mps 746 mmHg 68%
    09:00 +22°C° 0 mm 1 mps 747 mmHg 61%
    10:00 +24°C° 0 mm 1 mps 747 mmHg 55%
    11:00 +24°C° 0 mm 2 mps 746 mmHg 52%
    12:00 +25°C° 0 mm 2 mps 746 mmHg 50%
    13:00 +26°C° 0 mm 2 mps 746 mmHg 47%
    14:00 +25°C° 0 mm 2 mps 746 mmHg 53%
    15:00 +24°C° 0 mm 2 mps 746 mmHg 58%
    16:00 +23°C° 0 mm 2 mps 746 mmHg 64%
    17:00 +21°C° 0 mm 2 mps 746 mmHg 68%
    18:00 +21°C° 0 mm 1 mps 746 mmHg 72%
    19:00 +21°C° 0 mm 1 mps 746 mmHg 76%
    20:00 +20°C° 0.9 mm 1 mps 746 mmHg 81%
    21:00 +18°C° 0.9 mm 2 mps 746 mmHg 86%
    22:00 +17°C° 0.9 mm 2 mps 746 mmHg 90%
    23:00 +16°C° 1.4 mm 2 mps 746 mmHg 92%

    22 May, Wednesday

    Time Temperature Precipitation Wind Pressure Humidity
    00:00 +16°C° 1.4 mm 3 mps 746 mmHg 94%
    01:00 +16°C° 1.4 mm 3 mps 746 mmHg 95%
    02:00 +16°C° 0.8 mm 3 mps 747 mmHg 96%
    03:00 +15°C° 0.8 mm 4 mps 747 mmHg 96%
    04:00 +15°C° 0.8 mm 4 mps 747 mmHg 97%
    05:00 +15°C° 0.3 mm 5 mps 747 mmHg 95%
    06:00 +15°C° 0.3 mm 5 mps 747 mmHg 93%
    07:00 +16°C° 0.3 mm 6 mps 747 mmHg 91%
    08:00 +16°C° 0.2 mm 6 mps 747 mmHg 90%
    09:00 +16°C° 0.2 mm 6 mps 748 mmHg 90%
    10:00 +16°C° 0.2 mm 6 mps 748 mmHg 89%
    11:00 +16°C° 0.2 mm 5 mps 748 mmHg 89%
    12:00 +16°C° 0.2 mm 5 mps 748 mmHg 89%
    13:00 +16°C° 0.2 mm 5 mps 748 mmHg 88%
    14:00 +16°C° 0.2 mm 6 mps 749 mmHg 87%
    15:00 +17°C° 0.2 mm 7 mps 749 mmHg 87%
    16:00 +17°C° 0.2 mm 7 mps 749 mmHg 86%
    17:00 +16°C° 0.1 mm 7 mps 749 mmHg 88%
    18:00 +15°C° 0.1 mm 7 mps 750 mmHg 89%
    19:00 +15°C° 0.1 mm 7 mps 750 mmHg 91%
    20:00 +15°C° 0.1 mm 6 mps 750 mmHg 91%
    21:00 +14°C° 0.1 mm 6 mps 751 mmHg 91%
    22:00 +14°C° 0.1 mm 6 mps 751 mmHg 92%
    23:00 +14°C° 0.1 mm 6 mps 752 mmHg 89%

    23 May, Thursday

    Time Temperature Precipitation Wind Pressure Humidity
    00:00 +13°C° 0.1 mm 6 mps 752 mmHg 86%
    01:00 +11°C° 0.1 mm 7 mps 753 mmHg 83%
    02:00 +10°C° 0.1 mm 6 mps 753 mmHg 82%
    03:00 +9°C° 0.1 mm 6 mps 753 mmHg 80%
    04:00 +9°C° 0.1 mm 6 mps 754 mmHg 79%
    05:00 +8°C° 0.1 mm 6 mps 754 mmHg 79%
    06:00 +8°C° 0.1 mm 5 mps 755 mmHg 80%
    07:00 +8°C° 0.1 mm 5 mps 756 mmHg 80%
    08:00 +8°C° 0 mm 5 mps 756 mmHg 76%
    09:00 +9°C° 0 mm 5 mps 756 mmHg 72%
    10:00 +10°C° 0 mm 5 mps 756 mmHg 68%
    11:00 +13°C° 0 mm 5 mps 756 mmHg 60%
    12:00 +16°C° 0 mm 5 mps 756 mmHg 53%
    13:00 +19°C° 0 mm 6 mps 756 mmHg 45%
    14:00 +19°C° 0 mm 5 mps 756 mmHg 47%
    15:00 +19°C° 0 mm 5 mps 756 mmHg 48%
    16:00 +19°C° 0 mm 5 mps 756 mmHg 49%
    17:00 +18°C° 0 mm 4 mps 756 mmHg 55%
    18:00 +17°C° 0 mm 3 mps 756 mmHg 61%
    19:00 +16°C° 0 mm 2 mps 756 mmHg 67%
    20:00 +15°C° 0 mm 2 mps 756 mmHg 71%
    21:00 +13°C° 0 mm 1 mps 756 mmHg 75%
    22:00 +12°C° 0 mm 1 mps 756 mmHg 79%
    23:00 +12°C° 0 mm 1 mps 756 mmHg 80%

    24 May, Friday

    Time Temperature Precipitation Wind Pressure Humidity
    00:00 +11°C° 0 mm 1 mps 756 mmHg 82%
    01:00 +11°C° 0 mm 1 mps 756 mmHg 84%
    02:00 +11°C° 0 mm 1 mps 756 mmHg 85%
    03:00 +10°C° 0 mm 2 mps 755 mmHg 86%
    04:00 +9°C° 0 mm 2 mps 755 mmHg 87%
    05:00 +12°C° 0 mm 2 mps 755 mmHg 83%
    06:00 +12°C° 0 mm 3 mps 755 mmHg 79%
    07:00 +13°C° 0 mm 3 mps 755 mmHg 74%
    08:00 +16°C° 0 mm 3 mps 754 mmHg 67%
    09:00 +18°C° 0 mm 3 mps 754 mmHg 59%
    10:00 +19°C° 0 mm 3 mps 754 mmHg 51%
    11:00 +20°C° 0 mm 3 mps 753 mmHg 48%
    12:00 +21°C° 0 mm 3 mps 753 mmHg 46%
    13:00 +23°C° 0 mm 2 mps 753 mmHg 43%
    14:00 +23°C° 0 mm 2 mps 752 mmHg 44%
    15:00 +21°C° 0 mm 2 mps 752 mmHg 45%
    16:00 +21°C° 0 mm 2 mps 751 mmHg 46%
    17:00 +20°C° 0 mm 2 mps 751 mmHg 52%
    18:00 +20°C° 0 mm 1 mps 751 mmHg 58%
    19:00 +19°C° 0 mm 1 mps 750 mmHg 63%
    20:00 +18°C° 0 mm 1 mps 750 mmHg 67%
    21:00 +15°C° 0 mm 1 mps 750 mmHg 71%
    22:00 +14°C° 0 mm 1 mps 750 mmHg 75%
    23:00 +13°C° 0 mm 1 mps 750 mmHg 77%
    Show more